Wind_Speed
20 18 17 15 15 15 14 13 13 14 15 16 17 18 18 17 17 16 15 15 14 13 12 11 11 10 9 9 8 8 8 7 7 8 8 7 7 7 7 7 6 5 4 3 3 2 3 4 4 5 5 5 5 5 6 6 7 7 8 9 9 9 9 9 9 10 9 9 11 11 9 11 11 11 12 13 14 15 15 15 15 14 14 15 15
20 19 17 16 16 16 16 15 14 14 15 16 17 18 18 18 18 17 17 16 15 14 13 12 12 11 10 10 9 9 8 8 8 8 8 8 9 9 8 8 8 7 6 5 5 4 3 4 4 5 5 6 6 6 6 7 7 8 9 9 10 10 10 10 11 11 11 11 12 12 12 13 13 13 13 13 14 15 15 15 15 14 13 14 15
20 19 17 16 17 18 17 16 15 15 15 17 17 18 18 18 18 18 18 17 16 15 14 14 13 13 12 12 11 10 9 9 8 8 9 9 10 10 10 10 9 8 8 7 7 6 5 5 5 5 6 6 7 7 8 8 8 9 9 10 10 10 11 11 11 12 12 12 13 13 13 13 14 14 14 15 15 15 15 15 14 14 13 14 15
22 22 20 19 19 19 19 18 17 16 16 17 18 19 19 19 19 19 18 18 17 16 15 15 14 14 14 13 13 12 11 10 9 9 9 9 9 10 10 11 11 10 10 9 9 8 7 7 6 6 6 7 7 8 9 9 10 10 10 10 10 10 11 11 11 12 12 12 13 13 13 13 14 15 15 15 15 14 14 14 14 14 15 15 15
23 24 24 22 20 20 20 19 18 18 17 18 19 20 20 19 19 20 19 18 18 17 16 16 15 15 15 15 14 13 12 11 10 9 9 9 9 9 10 10 11 11 11 11 11 10 9 8 8 8 7 7 8 8 9 10 10 11 11 11 11 11 11 11 11 11 12 12 13 13 13 13 14 14 14 14 14 14 14 13 13 14 15 15 13
23 24 24 23 22 22 21 20 19 19 20 20 21 20 20 20 20 20 20 20 19 18 17 17 17 17 16 15 14 14 13 12 11 10 10 10 10 9 10 10 11 11 11 12 12 12 11 10 10 9 9 9 8 9 9 10 11 12 12 13 13 13 12 12 12 12 12 12 12 13 13 13 13 14 14 13 13 13 12 12 13 14 14 13 11
25 25 24 24 25 25 23 22 21 21 22 22 22 21 21 20 20 20 20 20 20 19 19 18 18 17 17 16 15 14 13 13 12 11 11 11 11 10 10 10 10 11 11 12 13 13 13 12 12 11 11 10 10 10 10 10 11 12 13 13 14 14 14 14 13 13 13 13 13 13 12 12 13 13 13 12 12 12 12 12 13 13 13 12 11
26 25 26 27 27 26 25 24 23 23 23 23 22 21 21 21 20 20 19 19 19 19 19 19 18 18 17 16 16 15 14 13 13 12 12 11 11 11 11 10 10 10 11 12 12 13 13 14 14 13 13 12 12 11 11 11 11 12 12 13 13 14 15 15 15 15 15 14 14 14 13 13 13 14 13 12 12 12 11 11 12 13 12 12 12
26 25 27 28 27 26 24 24 23 23 24 24 23 22 22 22 21 20 20 19 18 17 17 17 18 18 18 17 17 16 16 15 14 14 13 12 12 12 11 11 11 11 11 11 11 12 13 14 14 14 15 15 14 14 13 13 12 12 12 12 13 13 14 14 15 15 15 15 15 15 14 15 14 14 14 13 12 11 11 12 13 14 14 14 14
24 24 26 28 28 27 25 24 24 25 25 25 24 23 23 23 22 21 21 21 19 17 15 16 17 18 18 18 18 17 17 17 16 15 14 14 13 12 11 11 11 11 11 11 11 11 12 13 14 15 15 16 16 16 16 15 14 14 13 13 13 13 14 14 14 15 15 15 16 15 15 15 15 14 14 13 13 13 13 13 14 16 16 16 15
21 20 23 26 28 28 26 25 26 27 27 27 26 25 24 24 22 21 21 21 22 20 17 16 16 17 18 18 18 17 17 17 17 16 15 14 13 12 11 11 11 11 11 11 11 11 12 12 13 14 15 16 16 17 17 17 17 17 16 15 15 15 15 15 15 15 15 15 15 15 16 16 15 15 15 15 15 14 15 15 16 17 17 16 15
22 21 22 24 26 27 26 25 26 27 28 28 27 26 25 25 24 23 22 23 24 23 20 18 17 16 17 18 17 17 17 18 18 17 16 15 14 13 12 12 11 11 11 11 11 11 11 12 13 14 15 15 16 17 17 18 18 19 19 19 18 18 17 17 16 16 15 16 16 17 17 17 17 17 17 17 17 16 16 16 16 16 16 15 14
21 22 21 21 22 25 26 25 24 25 25 26 26 27 27 27 26 25 24 25 26 26 23 20 19 18 18 17 17 18 19 18 18 18 18 18 17 15 14 14 13 12 12 12 12 12 12 13 13 14 15 16 16 17 17 17 18 19 19 20 21 21 20 20 20 19 18 18 19 19 20 19 19 20 20 19 19 18 17 16 16 15 15 15 14
24 23 22 20 20 23 25 24 23 23 24 24 25 26 28 28 28 27 27 27 29 29 27 23 21 20 20 19 19 19 20 20 19 19 19 20 19 18 17 16 15 14 14 14 14 14 14 13 14 14 15 16 17 17 18 18 18 18 19 20 21 22 22 22 22 22 21 21 21 22 23 22 22 23 22 21 20 19 18 18 17 16 15 14 15
29 28 26 22 19 20 22 24 25 25 25 25 25 26 27 27 28 29 29 30 31 32 31 27 24 23 23 23 22 21 20 21 21 21 21 22 22 21 19 18 17 16 16 16 16 16 16 15 15 15 16 17 18 19 19 20 20 19 19 19 21 21 21 22 23 23 22 22 22 23 24 24 23 23 23 22 21 21 20 19 18 17 16 15 16
33 31 27 24 22 21 21 23 26 27 27 27 28 28 27 26 27 28 30 31 33 34 33 31 27 25 24 23 23 22 21 22 23 23 24 24 23 22 22 21 19 18 17 18 18 18 18 18 17 17 17 18 19 20 21 22 22 21 21 21 21 22 21 22 23 23 22 22 22 23 24 24 23 23 24 23 22 22 20 19 19 19 17 16 17
34 32 30 27 25 24 23 23 24 27 29 30 30 30 29 28 28 29 30 31 32 34 35 34 31 28 26 24 22 22 22 23 24 25 25 26 25 24 24 23 21 20 19 19 20 20 21 21 21 20 20 20 21 22 23 23 23 23 23 23 23 23 22 23 23 23 23 23 22 22 23 23 23 22 22 22 22 22 20 19 21 22 19 18 19
36 34 33 31 30 28 27 26 25 26 28 30 31 32 31 30 29 29 29 29 30 31 34 34 32 31 29 28 25 22 22 23 25 26 27 28 27 27 26 25 23 22 21 20 21 22 23 23 24 24 23 23 23 24 25 25 24 24 24 25 25 24 23 24 25 25 25 24 22 22 22 22 22 21 21 22 22 23 22 21 25 26 23 21 22
39 38 36 35 34 33 32 30 29 27 27 28 29 31 32 32 30 29 29 29 29 29 30 31 32 31 31 31 29 25 23 24 27 28 29 30 29 28 28 27 25 24 23 23 22 23 24 25 25 26 26 27 27 26 26 27 26 25 26 26 26 24 24 26 28 28 27 26 23 22 21 22 22 22 22 23 24 25 25 25 27 29 26 24 24
43 41 40 39 38 38 36 35 33 31 30 29 29 29 31 32 30 27 28 29 28 28 28 29 29 30 31 32 31 28 26 26 28 29 30 31 31 30 29 28 27 27 26 25 24 24 24 25 26 28 29 30 30 29 29 29 29 29 29 28 26 26 27 28 29 29 30 29 27 25 23 23 24 24 24 25 26 28 28 29 30 30 29 26 25
45 44 43 42 41 41 41 40 39 37 35 33 32 31 31 31 29 28 28 29 28 28 30 30 30 30 31 31 31 30 29 29 30 32 33 33 33 32 31 29 28 28 28 27 25 24 25 26 27 29 30 31 31 32 32 33 32 31 30 30 29 29 31 31 30 30 31 30 30 29 27 25 25 26 26 27 29 31 32 32 32 32 30 27 25
47 46 46 45 44 43 43 43 42 42 41 39 37 35 34 33 30 28 29 30 30 31 33 33 32 32 32 33 32 32 33 33 33 33 34 34 34 33 32 30 29 29 28 26 25 25 26 27 28 29 31 31 33 34 35 36 36 34 32 31 31 32 33 33 32 32 32 31 31 30 29 28 28 28 29 30 32 34 35 35 34 32 30 27 26
48 48 48 48 47 46 46 46 45 45 45 44 42 41 39 38 35 32 31 31 31 32 34 36 35 33 33 34 34 34 35 34 33 32 32 31 30 31 31 30 29 28 26 25 25 26 26 27 28 30 31 32 33 34 35 36 37 35 34 33 33 33 34 33 32 32 32 32 32 31 29 29 29 30 32 33 35 37 38 37 35 32 30 28 27
49 49 50 50 50 49 49 49 48 47 48 47 46 45 44 43 42 40 38 36 35 34 34 35 36 36 36 36 37 37 37 34 32 31 30 30 30 31 31 31 31 29 26 25 25 26 27 27 27 29 30 31 32 32 33 34 35 35 34 34 34 34 33 32 31 31 30 30 31 31 30 30 30 31 33 36 38 39 39 37 35 32 30 28 26
51 51 51 51 52 52 52 52 51 50 50 50 49 48 48 47 46 45 44 43 41 39 37 35 35 36 38 39 39 39 39 37 34 33 33 33 34 34 33 32 31 30 28 26 26 26 26 26 26 26 27 28 29 30 31 33 34 34 35 35 34 35 34 32 31 29 28 27 29 30 30 31 31 32 34 37 38 39 39 37 35 33 30 27 25
53 53 52 52 53 53 54 54 53 53 53 53 52 52 52 51 50 50 49 49 47 46 43 41 39 38 39 40 39 38 38 39 38 37 36 36 37 37 36 33 31 29 28 28 28 27 26 25 24 25 25 25 26 28 30 31 33 34 35 35 36 36 36 34 32 29 27 26 27 29 30 33 34 34 35 36 37 37 37 37 35 32 30 27 25
53 53 54 53 53 54 55 55 54 54 54 55 55 56 55 55 54 54 53 53 52 52 50 48 46 43 43 43 41 38 37 37 38 38 37 35 35 36 35 34 32 30 29 29 30 28 27 26 25 25 25 25 26 28 30 32 33 34 34 35 36 37 37 36 33 30 28 27 27 28 30 34 35 35 36 37 36 35 37 37 35 31 30 29 26
51 52 53 53 53 53 55 55 54 54 54 55 56 57 58 58 57 57 57 56 56 55 54 53 52 50 48 47 45 43 40 40 39 39 37 35 34 33 32 30 29 28 28 30 31 30 29 28 27 27 27 27 27 28 30 32 34 35 35 35 36 37 37 36 34 32 30 29 29 30 31 34 35 35 36 36 34 33 36 37 35 32 32 31 27
50 50 51 51 51 51 52 53 54 54 55 55 56 57 57 58 58 59 59 59 58 57 57 56 55 54 53 51 50 48 46 45 44 42 41 39 37 35 33 31 30 30 31 31 31 30 30 29 29 29 30 29 29 29 30 32 34 36 37 37 37 37 37 36 34 33 33 33 32 32 32 34 35 35 36 34 33 33 36 37 36 34 35 33 28
50 50 50 50 50 49 49 51 53 54 54 54 54 55 56 57 57 58 59 59 59 58 58 58 57 57 56 55 55 53 51 50 48 46 45 44 42 40 38 36 35 35 35 35 33 32 31 30 29 30 31 32 32 32 32 32 33 35 38 39 39 38 37 36 35 35 35 35 34 33 33 35 35 36 36 35 34 35 36 37 37 36 36 34 30
49 50 50 50 49 49 49 50 51 53 53 53 53 53 54 55 56 58 59 59 59 59 59 58 58 58 58 58 58 57 55 54 52 50 49 48 46 45 43 41 40 40 39 38 36 35 34 32 31 31 33 33 33 34 34 33 33 34 37 38 38 38 39 38 38 38 38 38 37 35 35 36 37 38 38 37 36 36 37 38 38 37 36 34 31
49 49 50 50 50 49 48 48 49 50 51 51 51 51 52 53 54 56 57 58 59 59 59 59 59 59 59 59 59 59 58 57 56 55 54 52 50 48 46 45 44 44 43 41 39 37 37 36 34 33 34 35 35 35 36 35 34 34 36 36 36 38 39 41 42 41 40 41 40 39 39 39 39 40 40 39 39 38 38 38 38 37 36 34 32
49 50 50 51 50 50 49 49 49 49 50 51 51 51 51 51 52 53 55 56 57 58 59 60 60 60 60 60 60 61 60 60 59 58 58 57 55 53 51 49 48 47 47 46 43 41 40 39 37 36 36 36 37 37 37 36 36 36 35 35 36 37 38 40 42 43 43 43 43 42 41 41 41 41 42 43 42 41 39 38 37 36 35 34 33
51 51 52 52 52 51 51 50 50 50 50 51 52 52 52 51 51 51 52 54 55 56 57 59 60 60 60 61 61 61 61 61 62 61 61 60 59 57 55 54 53 51 50 50 48 46 45 44 43 42 41 39 39 40 40 38 38 38 36 36 37 38 38 39 40 41 43 44 44 43 43 43 43 43 44 45 44 42 40 38 37 37 37 36 36
53 53 54 54 54 54 53 53 53 53 53 53 53 53 53 53 52 51 52 53 54 55 56 57 58 59 60 61 62 62 62 62 63 64 63 62 61 61 59 58 57 56 54 53 52 51 51 50 48 47 46 44 43 43 43 41 40 40 39 38 38 40 40 40 40 40 41 42 43 44 44 44 44 44 45 46 46 44 41 39 38 39 39 39 40
53 53 54 54 55 55 56 56 56 56 56 56 56 56 56 55 54 53 53 53 53 54 56 56 57 58 59 60 61 61 62 63 64 64 65 65 64 64 63 62 61 60 59 58 56 55 55 55 53 51 51 49 46 46 47 45 42 42 41 40 39 41 42 41 41 41 41 40 41 41 41 41 41 41 42 43 44 44 45 44 42 40 40 42 45
51 51 52 53 54 55 56 57 58 58 59 59 59 59 59 58 58 57 56 56 55 55 56 57 58 58 59 60 60 61 61 62 63 64 65 66 66 65 65 65 64 64 63 62 61 60 59 59 57 56 55 54 51 49 50 50 48 46 45 43 41 42 42 42 42 43 42 41 40 38 36 36 36 37 38 39 40 42 45 47 46 44 44 46 47
49 49 50 51 52 53 54 55 56 57 58 59 59 60 61 61 60 60 60 60 59 58 58 58 59 60 60 60 60 60 60 61 61 62 64 66 66 66 66 67 66 66 65 65 64 62 61 61 61 59 58 57 55 53 52 53 53 51 50 47 45 43 43 43 42 42 44 44 42 38 36 34 35 38 41 42 42 43 45 47 48 49 48 48 46
48 49 49 50 51 52 52 53 54 55 56 57 58 59 60 61 61 61 62 62 62 62 61 61 61 61 62 62 62 62 61 60 61 62 63 65 66 66 66 66 67 67 66 66 65 64 63 61 61 60 59 59 58 56 55 55 55 54 53 52 49 46 44 44 44 43 45 47 45 40 37 36 38 42 46 47 46 45 45 46 47 46 45 44 44
49 50 51 51 52 52 52 53 53 54 55 56 57 58 59 59 60 60 61 62 63 64 64 64 64 64 64 64 64 64 63 62 62 62 63 65 66 66 66 66 66 66 66 66 65 65 64 62 61 60 60 59 59 58 57 56 57 57 56 55 53 49 47 46 46 46 48 50 50 46 44 45 46 48 50 49 47 46 46 47 46 43 41 42 43
50 51 52 53 54 54 54 54 55 55 55 55 56 57 57 58 59 59 60 61 62 63 64 64 65 66 66 67 66 66 65 65 64 64 64 65 66 66 66 67 66 66 66 65 65 65 65 64 63 62 61 60 59 59 59 58 58 58 58 57 56 54 51 50 50 49 50 53 54 54 55 55 54 52 52 52 51 49 48 48 46 44 43 45 46
52 53 53 54 54 55 56 56 57 57 57 57 57 57 58 58 58 59 59 60 61 62 62 63 64 66 67 68 68 67 67 67 66 66 66 67 68 68 67 67 67 67 66 65 64 64 64 65 65 64 62 61 61 60 60 60 59 59 59 59 58 57 56 54 54 53 54 55 56 57 58 58 57 55 53 52 52 51 49 47 45 44 45 46 48
54 55 55 55 56 56 57 58 58 59 59 60 60 60 60 60 59 59 59 60 60 61 61 61 62 64 66 68 68 68 68 68 67 67 67 69 70 70 69 69 69 68 68 67 66 65 64 64 65 64 64 63 62 62 62 62 61 61 60 60 60 59 59 58 57 56 56 58 58 58 57 56 56 55 53 51 51 51 50 47 46 45 46 47 48
56 57 57 57 57 58 58 59 59 60 61 62 62 62 62 62 61 61 61 61 60 60 61 61 61 62 64 66 68 69 69 68 68 67 67 68 70 71 72 71 70 70 69 69 68 67 66 65 65 64 64 64 64 63 63 63 63 63 62 61 61 61 60 60 59 59 58 59 61 60 58 56 55 54 53 52 52 52 52 51 49 47 46 47 49
56 57 57 58 58 59 59 60 60 61 61 62 62 62 62 63 63 63 63 63 62 62 61 61 61 61 62 64 66 67 68 68 67 67 67 68 70 71 72 72 71 71 71 71 70 69 68 67 66 65 65 65 65 65 64 64 65 65 64 63 63 63 62 61 61 60 60 60 61 61 60 58 55 54 54 54 53 53 52 52 50 48 46 47 48
54 55 55 56 57 58 59 60 60 61 61 62 62 62 63 63 63 64 64 64 64 64 63 62 62 61 61 62 64 65 66 66 66 67 67 67 68 70 71 72 72 72 73 72 72 71 70 69 68 67 67 66 66 65 65 65 66 66 66 65 65 64 64 63 63 62 61 61 61 61 60 58 56 53 53 53 54 53 51 50 49 48 47 46 47
53 54 55 56 57 57 58 59 60 61 61 62 62 63 63 64 64 65 65 66 66 66 66 65 64 63 62 62 62 63 63 64 64 65 66 66 67 68 70 71 72 73 73 73 73 73 72 71 70 69 69 68 67 66 66 66 67 67 67 67 67 67 66 65 65 64 62 62 62 62 61 60 58 55 53 52 53 53 53 51 50 50 49 48 47
52 54 55 56 57 58 58 59 60 60 61 61 62 63 64 64 65 66 66 67 67 68 67 67 66 65 64 63 61 61 61 62 62 63 64 65 65 66 68 69 71 72 73 73 74 74 74 73 73 71 70 70 70 69 68 68 68 68 69 69 69 69 68 67 67 66 65 64 64 64 64 63 62 60 57 55 54 54 54 53 52 51 51 51 50
51 52 53 54 55 56 57 58 58 59 60 60 61 62 63 64 65 65 66 67 67 68 68 68 67 66 65 63 62 61 60 61 62 62 63 63 63 64 65 67 69 70 71 72 74 74 74 74 74 74 72 72 71 71 71 70 69 69 70 70 71 71 70 69 69 68 68 67 66 65 65 65 64 63 61 60 58 56 55 53 52 51 51 52 52
51 52 53 53 54 55 56 56 57 57 57 57 58 59 59 60 61 62 63 64 65 65 66 66 66 65 64 63 62 60 60 60 61 61 62 62 62 62 63 64 66 67 69 71 73 74 75 75 75 75 75 74 73 73 73 73 72 71 70 71 72 72 72 72 71 70 70 69 69 68 67 67 66 65 64 63 62 60 57 55 54 53 53 53 53
52 53 53 54 54 55 55 56 57 57 56 56 56 56 56 57 58 58 59 60 61 61 61 62 62 63 62 62 61 60 59 59 60 60 61 61 61 61 61 62 63 64 66 68 70 72 74 75 76 76 76 76 75 74 74 74 74 73 72 72 72 73 73 74 73 72 72 71 71 70 70 69 69 68 67 66 65 64 62 60 59 58 56 55 55
Wind_Direction
224 222 220 220 224 230 233 229 221 217 217 216 213 211 210 209 207 207 207 207 207 205 202 201 203 204 203 203 206 209 210 207 204 204 207 207 204 204 203 198 198 205 214 218 207 184 172 176 180 186 190 193 197 197 195 195 196 197 200 206 211 213 214 212 214 226 224 212 227 242 244 249 258 260 260 265 272 278 284 288 292 296 301 304 306
221 220 221 223 225 229 234 236 231 224 222 221 219 215 213 214 214 213 214 214 212 213 212 209 209 212 214 215 215 215 214 211 207 207 210 213 214 215 217 214 211 211 214 221 228 226 215 205 200 200 201 201 204 210 211 208 205 206 208 211 214 217 220 218 219 226 229 225 230 239 242 246 254 259 261 264 268 274 281 286 291 297 302 303 304
218 218 221 224 224 225 230 234 235 232 229 226 224 220 216 215 215 217 219 220 218 218 218 217 216 216 219 222 223 220 219 217 213 211 211 213 214 216 219 221 220 219 219 223 230 232 229 226 220 216 214 213 213 215 218 219 218 216 216 218 219 222 225 226 226 229 232 234 236 240 244 248 254 259 263 267 271 276 280 286 293 299 301 300 303
217 217 217 219 222 223 226 230 233 235 234 232 230 225 221 217 215 217 219 220 222 222 222 222 221 221 222 223 225 223 221 220 217 215 213 214 214 214 216 218 220 220 221 225 230 233 233 231 229 228 225 224 224 224 225 226 226 226 226 226 226 226 228 231 234 237 240 242 245 247 249 251 256 260 264 268 274 279 284 290 297 300 300 303 308
218 219 219 218 218 220 224 228 232 236 239 240 239 234 229 222 217 217 217 219 220 221 224 225 225 226 226 225 226 226 223 220 217 215 213 215 217 216 215 216 217 219 221 224 228 231 233 233 233 233 232 232 233 235 236 235 234 233 233 233 233 233 234 236 238 241 244 247 250 252 253 255 258 262 266 271 276 281 286 292 295 296 298 304 312
222 223 222 220 217 216 218 222 227 233 237 239 241 241 239 234 226 221 217 217 219 219 221 224 226 228 228 227 227 226 225 222 219 217 216 217 219 219 219 218 218 219 220 223 226 228 229 231 232 234 235 236 238 240 243 243 244 243 242 241 240 240 240 241 242 244 247 251 254 255 258 261 263 266 270 273 277 280 285 289 289 289 292 299 307
229 227 225 225 220 215 215 218 222 228 233 235 237 239 240 241 238 233 225 220 220 220 220 222 226 228 229 228 226 225 225 223 222 222 222 222 222 221 222 222 220 220 220 221 224 226 228 228 229 232 234 237 240 243 246 248 250 251 251 250 249 248 247 247 247 248 250 253 256 258 261 263 265 269 272 273 275 279 284 285 284 284 287 294 300
230 229 229 228 224 218 219 223 223 226 231 234 236 236 239 241 242 243 240 233 228 227 226 224 225 228 230 229 227 224 223 224 224 226 228 228 227 225 225 225 224 223 222 222 224 225 227 228 229 230 232 235 239 242 246 248 251 253 255 255 255 255 255 254 253 253 254 256 258 260 262 265 266 268 271 272 274 278 279 278 278 281 286 290 297
229 232 233 232 228 224 226 229 228 229 234 237 236 235 237 240 240 243 245 243 239 238 240 239 235 232 231 231 230 226 224 224 224 226 227 229 231 231 230 230 230 230 227 225 227 227 228 229 231 232 233 234 236 238 242 244 247 251 254 256 258 258 258 258 257 257 258 259 261 262 263 265 266 267 269 270 271 271 271 272 275 280 284 288 296
230 233 234 234 232 230 232 234 234 234 237 239 238 236 237 240 241 243 245 245 241 236 238 247 250 247 240 234 232 231 229 228 228 227 228 229 232 235 236 236 237 238 237 234 232 231 230 231 232 234 235 237 238 239 240 242 244 247 250 251 254 255 256 257 256 256 257 258 259 260 260 261 262 262 265 266 266 264 265 268 273 277 281 287 293
226 230 231 234 237 237 236 236 236 235 236 238 239 239 240 240 239 241 244 248 246 238 231 235 245 254 255 248 240 236 236 236 235 234 234 236 238 240 242 245 246 247 249 248 246 242 239 237 236 236 238 239 240 242 243 243 244 244 245 246 248 249 251 252 252 252 252 254 254 255 255 255 256 257 260 262 262 262 263 265 270 274 279 285 290
226 233 234 235 238 237 235 235 237 238 238 239 240 240 240 240 238 237 238 243 245 242 235 230 232 243 255 259 256 248 242 242 243 242 240 239 242 245 246 248 251 253 256 258 259 258 254 250 245 242 242 242 242 244 244 245 246 245 245 246 246 247 247 248 250 249 249 251 251 251 252 253 254 255 257 259 260 262 264 265 267 270 273 276 279
228 233 235 234 233 231 231 234 237 240 238 237 237 237 238 241 239 234 234 238 241 241 238 233 232 236 240 248 256 255 249 245 246 248 246 242 240 242 244 246 248 251 254 256 259 262 262 261 258 254 251 249 247 247 246 246 246 246 246 246 246 247 247 247 248 249 249 250 252 253 252 253 255 257 257 259 261 262 263 264 263 263 263 264 267
242 242 243 242 238 233 232 232 234 238 237 235 236 237 238 241 239 235 236 241 242 241 239 233 230 235 237 239 244 249 251 251 248 248 250 248 245 241 240 242 243 246 249 251 254 257 259 260 262 263 262 261 258 256 253 250 248 247 247 247 247 247 247 247 248 248 249 250 252 254 254 254 256 258 259 259 260 261 262 263 262 260 258 258 262
255 253 250 250 250 244 239 235 233 236 238 237 239 241 241 242 240 238 240 243 243 242 242 237 231 231 236 238 240 244 250 254 254 252 252 252 252 251 248 245 244 245 248 250 252 254 256 257 259 261 263 265 265 265 263 261 257 253 251 250 249 248 247 247 248 248 248 249 250 253 255 255 256 258 260 260 259 260 260 261 262 259 255 257 262
258 258 256 256 257 255 252 245 238 237 238 237 239 242 245 246 245 242 242 243 243 242 243 242 239 237 238 240 244 247 250 253 254 255 254 253 253 253 253 252 251 251 253 255 255 256 256 256 257 258 259 262 263 264 265 265 265 263 259 255 254 253 250 249 249 249 248 248 248 250 253 255 256 257 259 260 260 259 259 258 258 255 252 255 262
258 259 258 258 258 257 257 253 246 241 239 238 239 240 243 246 247 247 247 245 242 241 241 241 240 240 240 241 244 247 249 251 252 254 255 255 254 254 253 253 253 253 254 257 259 261 261 260 259 258 258 259 260 262 263 263 265 266 266 263 260 258 256 255 255 253 250 248 247 248 250 253 254 255 256 257 258 257 257 257 258 256 252 253 259
257 258 257 258 258 257 256 255 252 248 244 242 241 240 241 245 247 250 250 246 241 241 241 239 239 239 237 237 238 239 242 247 249 250 251 252 254 255 256 256 255 254 254 255 256 259 262 264 265 264 262 261 261 262 263 263 263 264 266 267 267 266 264 262 262 260 257 254 251 249 249 250 251 252 253 254 256 256 255 255 258 258 256 254 257
256 256 256 257 258 258 258 257 257 255 253 251 248 243 241 241 244 248 249 246 243 242 240 240 241 239 236 236 236 234 236 243 248 250 250 250 250 252 253 255 256 256 255 255 255 256 258 262 265 267 268 268 267 267 268 269 270 268 267 267 268 268 265 265 266 266 265 264 261 255 251 249 250 250 251 253 255 256 255 254 256 258 258 256 257
255 255 255 256 256 257 258 258 259 258 257 256 255 252 247 244 243 245 246 244 242 241 239 238 239 240 238 238 238 235 234 238 244 248 250 250 250 249 250 251 252 252 252 252 255 257 258 259 262 264 266 268 270 271 272 272 272 272 271 272 271 266 263 265 267 267 267 268 267 263 258 253 251 251 251 253 254 256 256 256 256 259 260 259 259
254 256 256 256 257 258 259 259 260 260 259 257 256 256 255 253 252 252 251 248 244 242 241 240 241 243 242 241 241 239 236 237 240 244 246 247 248 248 247 247 247 248 250 252 255 257 258 258 260 261 263 264 265 266 267 267 267 267 269 272 272 268 266 269 270 269 268 267 265 264 262 258 255 253 252 252 254 256 257 258 259 262 264 264 264
251 253 255 256 257 258 259 260 261 262 263 262 260 258 256 256 255 256 257 256 251 246 243 244 247 248 244 241 241 242 241 239 240 242 244 245 247 248 248 246 246 247 250 253 255 256 256 257 257 259 261 262 263 264 265 266 267 267 267 267 267 267 268 269 270 271 272 269 266 264 262 261 259 258 255 254 254 254 256 259 262 265 269 270 269
250 251 252 254 254 255 257 258 259 261 263 264 264 263 261 258 256 255 255 257 256 251 247 246 248 249 246 244 243 244 244 244 243 243 244 245 249 253 253 251 249 249 249 250 252 254 255 257 258 259 260 263 265 267 269 270 271 271 271 269 267 266 267 268 270 271 273 272 270 267 264 262 260 258 257 256 255 255 256 259 264 268 271 272 272
251 250 251 252 252 253 254 255 256 258 260 262 263 265 265 264 262 259 257 257 257 255 252 249 248 247 246 246 247 248 248 247 247 248 248 248 250 254 255 254 254 252 250 248 250 251 253 256 258 260 263 266 268 271 273 274 275 274 273 271 269 267 265 265 266 267 269 271 272 270 266 263 260 257 256 256 256 257 260 263 268 271 271 270 271
252 252 251 252 252 252 252 252 253 254 256 258 260 262 263 265 265 264 263 262 260 258 256 254 252 250 248 247 249 252 252 250 247 246 245 245 246 248 249 250 252 253 252 249 249 251 253 256 259 263 266 268 269 271 273 275 276 275 275 274 273 270 266 263 262 262 263 265 267 267 265 262 260 257 256 256 257 259 262 265 267 270 271 271 270
253 253 253 253 253 253 253 252 251 252 253 255 256 258 260 262 263 264 265 265 264 262 261 259 258 257 256 254 254 254 253 250 248 245 243 244 245 247 249 251 254 255 254 254 253 253 255 257 260 263 266 267 266 267 269 271 272 272 273 274 274 273 270 266 263 262 262 261 261 262 263 262 260 259 259 259 261 262 264 265 265 266 266 265 264
255 255 254 254 254 254 255 254 253 252 252 252 253 255 257 258 260 261 263 264 265 265 264 263 261 260 261 262 262 260 255 251 248 247 247 249 252 253 255 257 257 255 255 257 259 260 261 262 262 263 264 263 263 263 265 267 268 268 268 268 269 271 271 269 267 263 261 258 257 257 257 258 259 260 260 261 263 266 268 268 267 265 261 257 253
257 256 256 255 255 255 256 256 256 254 252 251 251 252 253 255 257 258 260 261 262 264 264 264 263 262 262 262 264 263 260 256 253 251 252 253 256 258 260 260 259 256 255 259 263 265 268 269 268 268 266 264 262 262 263 263 264 265 265 264 265 267 269 269 267 264 259 255 253 253 254 256 258 259 260 262 264 266 266 267 266 263 260 256 252
259 258 257 257 256 256 257 258 257 256 254 253 252 252 252 253 254 255 257 258 259 260 261 262 263 263 262 261 262 262 261 260 258 257 256 256 256 258 260 261 262 260 260 260 263 266 270 271 271 271 271 270 268 268 267 265 262 262 263 264 263 264 266 267 267 264 259 253 251 251 253 255 257 258 259 260 262 262 263 264 264 262 261 260 257
260 260 259 258 257 257 256 257 258 258 257 256 255 254 253 252 252 253 254 255 256 257 258 259 260 262 262 262 261 261 260 260 259 259 258 258 257 258 258 259 261 262 262 262 263 266 269 270 271 272 273 273 272 272 272 270 266 262 262 263 263 264 265 266 265 262 258 256 254 252 252 254 255 256 256 257 257 257 259 260 261 261 261 261 259
260 261 261 260 259 258 258 258 259 260 260 259 258 256 255 254 253 252 252 253 254 254 255 256 257 259 260 261 261 261 261 260 260 260 259 258 258 258 258 258 259 261 262 263 264 266 267 268 269 271 273 274 274 272 271 270 269 266 264 263 263 264 264 264 263 261 258 258 257 255 253 253 253 253 253 253 252 253 255 257 259 259 259 259 257
260 261 261 261 261 261 260 259 259 260 262 262 261 259 258 256 255 254 253 253 253 253 253 254 254 256 257 258 260 261 261 261 261 261 260 259 258 258 257 257 258 259 260 262 263 264 265 266 267 270 273 275 276 274 272 270 270 268 266 264 263 263 262 262 261 260 259 259 259 258 256 254 253 253 252 250 249 248 250 252 254 255 256 256 256
259 260 260 261 261 261 261 260 260 260 261 262 262 262 261 260 258 258 256 255 253 253 253 253 253 253 254 255 257 258 259 260 260 260 260 260 260 259 258 258 258 258 259 259 260 261 262 263 265 267 270 273 274 274 273 272 271 269 268 266 263 262 261 260 260 260 259 259 261 263 262 261 259 256 254 252 250 247 247 248 251 253 254 255 256
260 260 260 260 260 261 261 261 260 260 260 260 261 261 261 261 260 260 259 258 256 254 253 253 253 253 252 253 253 255 256 258 259 259 259 260 260 260 260 259 259 258 258 258 258 258 259 261 263 266 268 270 272 273 273 273 272 271 268 266 264 262 260 259 260 260 260 260 262 264 267 267 266 263 259 256 254 251 249 249 250 253 256 258 261
262 262 262 261 261 261 261 261 260 260 259 259 259 260 260 260 261 260 260 261 260 258 256 255 254 253 253 252 252 253 253 254 255 257 258 259 259 259 259 259 259 259 259 259 258 258 258 259 261 263 266 267 268 270 271 271 271 271 269 266 265 264 262 260 261 261 261 260 261 262 263 265 265 263 261 259 258 256 254 253 254 256 258 261 265
264 264 264 264 264 263 262 262 261 261 260 260 260 259 260 260 260 259 259 260 260 261 260 258 257 255 254 253 253 253 253 253 253 254 256 257 258 258 258 258 258 258 258 259 259 258 258 259 260 261 264 265 266 266 268 268 268 270 270 268 265 264 264 263 262 261 260 259 258 258 258 259 260 261 262 264 263 259 255 252 250 249 250 254 257
263 264 265 265 265 265 264 264 263 263 263 263 262 261 261 260 260 259 259 258 258 259 260 260 260 258 257 256 254 254 253 253 253 253 254 255 255 256 257 257 258 258 258 258 259 259 259 260 260 261 262 264 263 263 263 264 265 267 269 269 266 264 265 265 264 261 257 252 251 252 255 259 263 266 268 270 267 262 255 249 246 246 250 254 256
262 263 264 265 265 265 266 266 265 265 265 264 264 264 263 262 262 261 260 259 258 258 258 259 260 260 259 258 257 256 255 255 255 254 254 254 254 254 255 256 257 257 258 258 259 259 259 259 260 261 261 261 261 260 259 261 261 262 264 266 266 265 264 264 263 260 252 246 246 249 254 259 267 270 271 271 271 267 260 254 254 258 261 262 263
263 264 265 265 265 266 266 266 266 266 266 266 265 265 265 264 264 264 263 262 260 259 258 258 259 259 260 259 259 258 257 256 256 256 256 256 255 254 254 254 255 256 257 258 258 259 259 259 259 260 260 260 260 259 258 258 259 260 260 261 263 263 263 262 262 258 250 244 244 247 251 257 265 269 270 272 274 274 268 264 265 269 268 267 268
265 265 266 266 267 267 267 267 267 267 267 267 267 267 266 266 265 266 265 265 263 261 260 259 258 259 259 259 259 259 259 258 258 258 258 258 257 256 255 254 254 254 255 256 257 258 259 259 259 259 259 259 259 259 258 257 258 259 260 260 259 260 260 260 260 258 253 248 246 246 251 258 264 267 269 271 273 273 270 267 269 273 273 272 272
265 265 265 266 267 268 268 268 268 268 268 268 268 268 268 267 267 266 266 266 266 265 263 262 260 259 259 259 259 259 259 259 258 258 258 259 259 258 257 256 255 255 255 255 255 256 257 258 258 259 259 259 259 259 258 258 257 257 259 259 259 258 258 258 257 257 255 253 251 251 255 261 265 266 267 269 270 271 272 270 271 274 276 275 275
265 265 265 265 266 267 268 269 269 270 270 270 270 270 269 269 269 268 267 267 267 266 266 265 263 262 261 260 259 258 258 258 257 257 258 259 259 259 259 258 257 256 255 255 255 255 255 256 257 258 258 258 258 258 258 258 257 257 257 258 259 258 257 257 257 257 256 255 254 254 256 261 265 267 268 269 269 271 272 272 272 274 274 274 275
266 266 266 266 266 267 267 268 268 269 270 270 271 271 271 271 270 270 269 268 268 267 267 266 265 264 263 262 261 259 258 257 257 256 257 258 258 259 259 259 259 258 257 256 255 254 254 254 255 256 257 257 257 258 258 258 258 258 257 257 258 258 257 257 257 258 258 258 257 256 256 258 261 265 267 268 268 268 268 268 269 271 272 272 274
268 268 268 268 268 268 268 268 268 268 269 270 270 270 271 271 271 271 270 270 269 268 268 267 265 265 264 264 263 262 260 259 258 257 256 256 256 257 258 258 259 259 259 258 257 255 254 254 254 254 255 255 256 256 257 257 258 258 258 257 258 258 258 258 257 257 258 260 260 260 259 258 258 260 262 263 264 264 264 265 267 268 269 270 272
269 269 269 269 269 269 269 269 269 269 269 269 270 270 270 270 270 270 270 270 270 269 268 267 266 265 264 264 263 263 262 261 260 258 256 255 255 256 256 257 257 257 258 258 258 257 255 254 254 254 254 254 254 254 255 256 257 258 258 258 258 258 258 258 258 257 257 258 260 262 262 261 259 258 258 259 260 261 262 263 265 267 267 268 270
269 269 269 269 269 269 269 269 269 269 269 269 269 269 269 269 269 269 269 270 270 270 269 268 267 266 265 263 263 262 262 262 261 259 258 256 255 255 255 255 255 255 255 256 257 257 256 255 254 254 253 254 254 253 254 254 255 256 257 258 258 258 258 258 258 258 257 257 258 260 262 263 262 260 259 258 259 260 261 262 264 265 267 268 269
268 268 268 268 269 269 269 269 269 269 269 269 269 269 269 269 269 269 269 270 270 270 270 269 268 267 266 264 263 262 261 261 261 260 259 257 256 255 254 254 254 253 253 254 254 255 256 255 255 254 253 253 254 253 253 253 253 254 255 256 257 257 258 258 258 258 258 257 257 258 261 263 265 264 263 261 260 260 261 263 264 265 267 268 268
268 268 268 268 268 268 268 269 268 268 268 268 269 269 269 269 269 269 270 270 270 270 270 270 269 268 267 265 264 262 260 259 259 259 258 258 257 255 254 254 253 253 252 252 252 252 253 254 254 253 253 253 253 253 253 252 252 252 253 255 255 256 257 257 257 258 258 258 258 258 260 262 264 265 265 264 262 261 262 263 265 267 268 268 267
270 270 270 270 270 270 270 269 269 269 269 268 268 268 269 269 269 269 269 270 270 270 270 270 269 268 267 265 263 262 260 258 257 256 257 257 257 256 255 254 253 252 251 251 250 250 250 251 252 252 252 252 251 252 252 252 252 251 252 253 254 255 256 256 257 257 258 258 258 259 260 261 263 265 266 265 264 263 262 263 264 266 268 268 268
271 271 271 272 272 271 271 271 270 270 269 269 269 269 269 268 268 268 268 268 268 269 269 269 268 267 266 264 262 261 259 257 256 255 255 256 256 256 255 255 254 253 252 251 250 249 248 248 248 249 250 250 250 250 251 251 252 251 251 251 252 253 255 256 256 257 257 258 258 259 260 261 262 264 265 266 265 265 264 264 265 266 267 268 268
272 272 272 272 272 272 272 272 272 272 271 271 270 270 269 269 268 267 267 267 267 267 267 267 266 265 264 262 260 258 257 256 255 255 255 255 255 255 255 255 255 254 253 252 250 249 248 247 246 246 247 248 248 248 248 249 250 251 251 250 250 251 253 254 255 256 257 257 258 258 259 260 261 262 263 264 265 265 265 265 266 266 267 268 269
Height
5937 5939 5941 5942 5943 5945 5946 5947 5949 5950 5950 5951 5952 5953 5954 5955 5956 5957 5958 5959 5959 5960 5961 5962 5963 5964 5965 5966 5967 5968 5969 5970 5971 5972 5973 5973 5974 5974 5974 5975 5975 5976 5977 5978 5978 5979 5979 5980 5980 5980 5981 5981 5981 5982 5982 5982 5983 5983 5984 5984 5984 5985 5985 5985 5985 5986 5986 5987 5986 5986 5986 5986 5986 5986 5986 5986 5985 5985 5985 5984 5984 5985 5984 5983 5982
5935 5936 5938 5940 5941 5942 5944 5946 5947 5949 5949 5950 5950 5951 5952 5953 5954 5955 5956 5957 5958 5959 5960 5961 5961 5962 5963 5964 5965 5966 5968 5969 5970 5971 5972 5972 5973 5973 5973 5974 5975 5975 5976 5977 5977 5978 5978 5979 5979 5980 5980 5980 5980 5981 5981 5981 5982 5982 5983 5983 5983 5983 5984 5984 5984 5984 5984 5985 5985 5985 5985 5985 5985 5984 5984 5984 5984 5983 5983 5983 5983 5983 5983 5982 5981
5932 5933 5935 5937 5938 5939 5941 5943 5945 5947 5948 5949 5949 5949 5950 5951 5952 5953 5954 5955 5956 5957 5958 5959 5960 5961 5962 5962 5963 5964 5966 5967 5968 5969 5970 5971 5972 5972 5972 5973 5974 5974 5975 5976 5976 5977 5977 5978 5978 5979 5979 5979 5979 5979 5980 5980 5980 5981 5981 5981 5982 5982 5982 5982 5982 5982 5982 5983 5983 5983 5983 5983 5983 5983 5982 5982 5982 5982 5982 5982 5982 5982 5982 5981 5980
5928 5930 5932 5933 5935 5937 5938 5940 5942 5945 5946 5947 5948 5948 5948 5949 5950 5950 5951 5953 5954 5955 5956 5957 5958 5959 5960 5961 5962 5963 5964 5965 5966 5968 5969 5969 5970 5971 5971 5972 5972 5973 5974 5975 5975 5976 5976 5977 5977 5978 5978 5978 5978 5978 5979 5979 5979 5980 5980 5980 5980 5981 5981 5981 5981 5981 5981 5981 5981 5981 5981 5981 5981 5981 5981 5981 5981 5980 5980 5980 5980 5980 5980 5979 5979
5925 5928 5929 5930 5932 5934 5936 5938 5940 5942 5944 5946 5947 5947 5947 5948 5948 5948 5949 5951 5952 5953 5954 5955 5957 5957 5958 5959 5960 5961 5962 5963 5965 5966 5967 5968 5968 5969 5969 5970 5971 5971 5972 5973 5974 5974 5975 5976 5976 5976 5977 5977 5977 5977 5978 5978 5978 5978 5979 5979 5979 5979 5979 5979 5979 5979 5979 5979 5979 5979 5979 5979 5979 5979 5979 5979 5979 5979 5979 5979 5979 5978 5978 5977 5977
5923 5925 5927 5928 5928 5931 5933 5935 5936 5938 5940 5942 5944 5946 5947 5948 5947 5947 5948 5948 5950 5951 5952 5954 5955 5956 5957 5958 5959 5960 5961 5962 5963 5964 5965 5966 5966 5967 5967 5968 5969 5969 5970 5971 5972 5973 5973 5974 5975 5975 5975 5975 5976 5976 5976 5977 5977 5977 5977 5977 5978 5978 5978 5978 5978 5978 5978 5978 5978 5978 5978 5978 5978 5977 5977 5978 5978 5978 5978 5977 5977 5977 5976 5976 5976
5921 5923 5925 5925 5926 5928 5930 5931 5932 5933 5935 5937 5940 5943 5946 5948 5948 5948 5948 5948 5948 5949 5951 5952 5953 5954 5955 5957 5958 5959 5960 5961 5962 5963 5963 5964 5964 5965 5965 5966 5967 5967 5968 5968 5969 5970 5971 5972 5973 5973 5973 5974 5974 5975 5975 5976 5976 5976 5976 5976 5976 5977 5977 5977 5977 5977 5977 5977 5977 5977 5977 5977 5976 5976 5976 5976 5976 5976 5976 5976 5975 5975 5975 5975 5975
5918 5921 5922 5922 5923 5924 5926 5928 5929 5931 5933 5935 5937 5940 5943 5946 5948 5949 5949 5949 5949 5949 5950 5951 5952 5952 5954 5955 5956 5957 5958 5959 5960 5961 5962 5962 5963 5963 5964 5964 5964 5965 5966 5966 5967 5967 5968 5969 5970 5971 5972 5972 5973 5973 5974 5974 5975 5975 5975 5975 5975 5975 5975 5976 5976 5976 5976 5976 5975 5975 5975 5975 5975 5974 5974 5974 5974 5974 5974 5974 5973 5973 5973 5973 5973
5915 5917 5919 5920 5920 5921 5923 5925 5927 5929 5931 5933 5935 5937 5940 5942 5945 5947 5949 5949 5949 5950 5950 5951 5952 5952 5952 5953 5954 5955 5956 5956 5957 5958 5959 5960 5961 5962 5962 5962 5963 5963 5963 5964 5964 5965 5966 5967 5968 5968 5969 5970 5971 5971 5972 5973 5973 5974 5974 5974 5974 5974 5974 5974 5975 5975 5974 5974 5974 5974 5974 5974 5973 5973 5973 5972 5972 5972 5972 5972 5972 5971 5971 5971 5971
5912 5914 5916 5919 5919 5919 5920 5922 5925 5927 5929 5931 5933 5934 5936 5938 5941 5944 5946 5947 5947 5947 5948 5949 5951 5952 5952 5952 5953 5953 5953 5954 5954 5955 5956 5958 5959 5960 5961 5961 5962 5962 5962 5962 5962 5963 5963 5964 5965 5966 5967 5967 5968 5969 5970 5970 5971 5972 5972 5973 5973 5973 5973 5973 5973 5973 5973 5973 5972 5972 5972 5972 5972 5972 5971 5971 5971 5971 5971 5970 5970 5970 5970 5970 5970
5909 5910 5913 5916 5917 5917 5917 5919 5922 5924 5927 5929 5930 5931 5933 5935 5937 5939 5942 5945 5945 5943 5943 5944 5947 5950 5951 5952 5952 5952 5952 5952 5952 5953 5954 5955 5956 5958 5959 5960 5961 5962 5962 5962 5962 5962 5962 5963 5963 5964 5964 5965 5965 5966 5967 5968 5968 5969 5970 5970 5971 5971 5971 5972 5972 5972 5972 5972 5971 5971 5971 5971 5970 5970 5970 5970 5969 5969 5969 5969 5968 5968 5968 5968 5968
5907 5908 5910 5912 5914 5915 5915 5917 5919 5922 5924 5926 5928 5929 5931 5932 5933 5934 5937 5940 5942 5941 5940 5940 5943 5946 5949 5950 5951 5952 5952 5951 5951 5951 5952 5953 5954 5955 5957 5958 5959 5960 5961 5962 5962 5962 5962 5962 5962 5962 5962 5963 5963 5964 5964 5965 5965 5966 5967 5967 5968 5968 5969 5969 5970 5970 5971 5970 5970 5970 5970 5969 5969 5969 5968 5968 5968 5968 5967 5967 5967 5966 5966 5966 5966
5905 5906 5907 5909 5911 5913 5913 5915 5917 5919 5921 5923 5925 5927 5929 5930 5931 5931 5932 5935 5938 5940 5940 5939 5940 5942 5945 5947 5948 5949 5949 5950 5950 5950 5950 5950 5951 5952 5954 5955 5956 5958 5959 5960 5961 5961 5962 5962 5962 5962 5962 5962 5962 5962 5962 5962 5962 5963 5963 5964 5964 5965 5966 5966 5967 5968 5968 5968 5968 5968 5968 5968 5968 5967 5967 5966 5966 5966 5965 5965 5965 5965 5965 5965 5964
5903 5905 5906 5907 5908 5909 5911 5913 5915 5917 5918 5919 5921 5923 5926 5927 5928 5929 5930 5932 5935 5937 5938 5937 5937 5938 5941 5943 5944 5945 5946 5947 5948 5948 5948 5948 5949 5950 5951 5952 5953 5954 5955 5956 5957 5958 5959 5960 5961 5961 5961 5961 5961 5960 5960 5960 5960 5960 5960 5961 5961 5961 5962 5963 5963 5964 5965 5965 5966 5965 5965 5966 5965 5965 5965 5964 5964 5963 5963 5963 5963 5963 5963 5963 5962
5900 5901 5903 5904 5905 5906 5908 5911 5913 5914 5915 5917 5918 5919 5921 5924 5925 5926 5927 5929 5931 5934 5935 5935 5934 5935 5937 5939 5941 5943 5944 5945 5945 5946 5947 5947 5947 5948 5949 5950 5951 5952 5953 5954 5954 5955 5956 5957 5958 5959 5959 5960 5959 5959 5959 5959 5959 5959 5959 5958 5958 5958 5958 5959 5959 5960 5961 5962 5962 5962 5962 5963 5963 5963 5962 5962 5962 5961 5961 5961 5960 5960 5960 5960 5960
5896 5897 5899 5901 5902 5903 5905 5907 5910 5912 5913 5914 5916 5917 5918 5920 5921 5922 5924 5925 5927 5930 5932 5932 5932 5933 5935 5937 5938 5940 5941 5942 5943 5943 5944 5944 5945 5946 5947 5948 5949 5951 5951 5952 5952 5953 5954 5954 5955 5956 5956 5957 5957 5957 5957 5957 5957 5957 5957 5957 5956 5956 5956 5956 5956 5956 5957 5958 5959 5959 5959 5960 5960 5960 5960 5960 5960 5959 5959 5959 5958 5957 5957 5958 5957
5892 5894 5896 5898 5899 5901 5902 5904 5907 5909 5910 5911 5913 5914 5915 5917 5918 5919 5921 5922 5924 5925 5927 5928 5929 5931 5932 5934 5935 5936 5937 5938 5940 5940 5940 5941 5941 5942 5943 5945 5946 5948 5949 5950 5950 5951 5951 5952 5952 5953 5953 5953 5953 5953 5954 5954 5955 5955 5955 5955 5955 5955 5955 5954 5954 5954 5954 5954 5955 5956 5956 5956 5957 5958 5958 5958 5957 5957 5957 5957 5955 5954 5955 5955 5954
5888 5890 5893 5895 5896 5898 5899 5901 5903 5905 5907 5908 5909 5910 5911 5913 5914 5915 5917 5918 5920 5922 5923 5924 5926 5927 5928 5930 5931 5932 5932 5933 5934 5936 5937 5937 5938 5939 5939 5941 5943 5944 5946 5947 5947 5948 5949 5949 5950 5950 5950 5950 5950 5950 5950 5951 5952 5953 5953 5953 5953 5954 5954 5954 5953 5952 5951 5952 5952 5953 5953 5953 5954 5954 5955 5955 5954 5954 5954 5954 5952 5951 5952 5953 5952
5883 5886 5889 5891 5893 5894 5896 5897 5899 5901 5902 5904 5905 5906 5908 5909 5911 5912 5913 5915 5916 5918 5919 5921 5922 5924 5925 5925 5926 5927 5928 5928 5929 5931 5933 5934 5935 5935 5935 5936 5938 5940 5941 5943 5944 5945 5946 5946 5947 5947 5948 5947 5948 5948 5948 5948 5949 5950 5950 5950 5951 5952 5952 5951 5951 5950 5950 5950 5951 5951 5951 5951 5951 5952 5952 5952 5951 5950 5951 5951 5949 5948 5949 5950 5949
5878 5881 5884 5886 5889 5890 5892 5893 5895 5896 5898 5899 5901 5902 5904 5906 5908 5910 5911 5912 5913 5914 5915 5917 5918 5920 5921 5922 5922 5922 5922 5923 5924 5925 5927 5928 5930 5931 5931 5932 5933 5934 5935 5937 5939 5941 5942 5943 5943 5944 5944 5945 5945 5945 5945 5945 5946 5946 5947 5948 5949 5949 5947 5947 5948 5948 5948 5948 5948 5948 5949 5949 5949 5949 5949 5949 5948 5947 5947 5947 5946 5945 5945 5946 5946
5873 5875 5878 5880 5883 5885 5887 5889 5890 5892 5894 5896 5897 5898 5899 5900 5902 5905 5907 5907 5909 5910 5911 5913 5914 5916 5917 5918 5919 5918 5918 5918 5918 5919 5920 5921 5922 5924 5926 5927 5928 5928 5929 5931 5933 5935 5937 5938 5939 5939 5940 5941 5941 5941 5940 5939 5940 5941 5943 5944 5945 5944 5943 5943 5944 5944 5944 5944 5944 5945 5946 5946 5947 5947 5947 5946 5945 5943 5942 5942 5942 5942 5942 5943 5943
5869 5871 5872 5875 5877 5879 5881 5883 5885 5887 5889 5891 5892 5894 5895 5896 5897 5899 5901 5902 5904 5906 5908 5909 5911 5912 5913 5913 5914 5914 5913 5913 5913 5913 5914 5915 5917 5919 5921 5923 5923 5924 5925 5927 5929 5930 5931 5932 5933 5934 5935 5935 5936 5936 5936 5935 5935 5936 5938 5939 5939 5939 5939 5939 5940 5940 5940 5941 5941 5941 5941 5942 5943 5943 5943 5943 5942 5940 5939 5938 5938 5938 5938 5939 5940
5864 5866 5868 5869 5871 5874 5876 5878 5880 5882 5883 5885 5887 5888 5890 5892 5894 5895 5897 5898 5899 5901 5903 5905 5907 5908 5909 5909 5910 5910 5909 5909 5911 5913 5915 5916 5918 5919 5920 5921 5920 5921 5922 5923 5924 5925 5926 5927 5928 5929 5930 5931 5931 5932 5932 5932 5932 5933 5934 5934 5934 5934 5934 5935 5936 5937 5937 5938 5938 5938 5938 5938 5938 5939 5939 5939 5938 5936 5936 5936 5936 5936 5936 5936 5936
5858 5860 5862 5864 5866 5868 5870 5872 5875 5877 5878 5880 5882 5883 5884 5886 5888 5890 5892 5894 5895 5896 5898 5900 5902 5903 5905 5905 5905 5905 5906 5908 5911 5913 5915 5916 5917 5917 5917 5918 5918 5918 5919 5920 5919 5920 5921 5922 5924 5925 5926 5927 5927 5928 5928 5928 5928 5929 5929 5930 5930 5930 5930 5930 5931 5932 5933 5934 5935 5935 5935 5934 5933 5933 5933 5933 5933 5933 5933 5933 5933 5933 5933 5933 5932
5851 5853 5855 5857 5859 5861 5863 5866 5869 5871 5873 5875 5877 5878 5879 5880 5882 5884 5886 5888 5890 5892 5894 5895 5897 5898 5899 5900 5901 5901 5902 5904 5907 5908 5909 5910 5910 5910 5910 5911 5913 5915 5916 5916 5915 5915 5916 5918 5920 5921 5922 5923 5924 5924 5924 5924 5923 5924 5924 5925 5925 5926 5926 5926 5926 5926 5928 5929 5930 5931 5932 5930 5928 5928 5928 5928 5929 5930 5931 5931 5931 5930 5930 5929 5928
5845 5846 5849 5851 5853 5854 5856 5859 5862 5865 5867 5869 5871 5872 5874 5875 5876 5878 5880 5881 5883 5886 5888 5890 5892 5893 5894 5895 5897 5898 5898 5899 5901 5902 5902 5903 5903 5904 5905 5906 5908 5911 5912 5912 5911 5911 5913 5914 5916 5917 5918 5919 5919 5920 5920 5919 5919 5919 5919 5919 5920 5921 5922 5922 5922 5922 5923 5924 5925 5926 5928 5927 5924 5924 5923 5924 5925 5927 5927 5927 5928 5928 5927 5926 5924
5838 5840 5842 5844 5847 5847 5847 5851 5855 5859 5861 5862 5864 5866 5868 5869 5870 5872 5874 5875 5877 5879 5881 5883 5886 5888 5889 5890 5891 5893 5894 5895 5896 5897 5898 5899 5900 5901 5902 5903 5904 5906 5907 5908 5908 5908 5909 5911 5912 5913 5914 5914 5915 5916 5916 5915 5915 5915 5914 5915 5915 5915 5916 5917 5918 5918 5918 5919 5920 5921 5922 5922 5921 5920 5920 5920 5921 5923 5923 5923 5924 5925 5924 5922 5922
5831 5833 5835 5837 5839 5840 5841 5843 5847 5850 5852 5854 5856 5858 5860 5863 5864 5865 5867 5869 5871 5872 5874 5876 5878 5881 5883 5885 5886 5887 5889 5890 5891 5892 5894 5896 5898 5898 5898 5899 5899 5900 5901 5902 5903 5905 5905 5906 5908 5908 5908 5909 5910 5911 5911 5911 5911 5911 5910 5910 5910 5910 5911 5911 5912 5913 5913 5913 5914 5915 5916 5917 5917 5916 5915 5915 5917 5919 5918 5918 5920 5921 5920 5918 5920
5824 5825 5827 5829 5832 5834 5835 5836 5837 5839 5842 5845 5847 5850 5853 5855 5858 5859 5860 5862 5864 5866 5867 5869 5871 5873 5876 5878 5880 5882 5883 5884 5885 5887 5888 5890 5892 5894 5894 5894 5894 5895 5896 5897 5898 5900 5900 5901 5902 5902 5903 5904 5904 5905 5906 5906 5906 5906 5906 5905 5905 5905 5906 5907 5907 5908 5908 5907 5908 5909 5910 5912 5912 5912 5912 5912 5913 5913 5911 5912 5914 5916 5915 5915 5917
5816 5817 5819 5822 5825 5827 5828 5829 5829 5830 5833 5836 5839 5842 5845 5847 5849 5851 5852 5854 5856 5859 5861 5862 5864 5866 5868 5870 5872 5875 5876 5877 5878 5881 5882 5883 5885 5887 5888 5889 5889 5889 5890 5891 5893 5895 5895 5895 5896 5897 5897 5898 5899 5899 5900 5900 5901 5901 5901 5901 5901 5901 5901 5902 5903 5903 5902 5902 5903 5904 5905 5906 5907 5907 5907 5907 5907 5906 5905 5905 5907 5909 5910 5911 5913
5808 5809 5811 5814 5816 5819 5821 5823 5823 5823 5825 5827 5830 5833 5835 5837 5840 5842 5844 5847 5849 5851 5853 5855 5857 5859 5860 5862 5864 5866 5868 5870 5871 5873 5875 5877 5878 5880 5882 5883 5884 5884 5885 5886 5888 5890 5890 5890 5891 5891 5891 5892 5893 5894 5894 5894 5895 5895 5896 5896 5896 5896 5896 5897 5897 5897 5898 5898 5898 5899 5899 5900 5901 5901 5900 5900 5900 5899 5899 5899 5900 5902 5903 5905 5907
5801 5803 5804 5806 5808 5811 5813 5815 5816 5817 5818 5819 5821 5823 5826 5828 5831 5833 5835 5838 5841 5843 5845 5847 5850 5851 5853 5855 5856 5857 5859 5862 5864 5865 5866 5869 5871 5873 5875 5877 5878 5879 5880 5881 5883 5885 5884 5884 5885 5886 5886 5886 5887 5888 5888 5889 5889 5889 5890 5890 5891 5891 5891 5891 5890 5891 5892 5893 5893 5893 5893 5894 5894 5894 5894 5894 5893 5893 5893 5893 5893 5895 5896 5898 5901
5795 5796 5797 5799 5801 5803 5805 5807 5809 5811 5811 5811 5812 5814 5817 5820 5822 5823 5825 5828 5831 5834 5836 5838 5841 5843 5845 5847 5848 5849 5851 5853 5855 5856 5858 5860 5863 5865 5868 5870 5871 5872 5874 5875 5878 5879 5879 5878 5880 5881 5881 5881 5881 5881 5882 5884 5884 5884 5884 5885 5885 5885 5885 5884 5884 5886 5887 5887 5888 5888 5889 5889 5890 5890 5890 5888 5887 5887 5888 5888 5889 5890 5891 5893 5896
5787 5788 5790 5791 5794 5795 5797 5799 5801 5803 5804 5804 5805 5807 5809 5811 5814 5815 5816 5818 5821 5824 5827 5829 5831 5834 5836 5838 5840 5842 5844 5845 5846 5847 5849 5851 5854 5857 5860 5862 5863 5865 5867 5868 5870 5872 5872 5872 5873 5874 5875 5876 5876 5875 5876 5877 5878 5878 5879 5879 5879 5879 5879 5879 5880 5880 5881 5882 5883 5884 5885 5885 5886 5886 5886 5885 5885 5885 5886 5887 5887 5887 5889 5890 5892
5778 5780 5781 5784 5786 5788 5790 5791 5792 5793 5794 5796 5798 5799 5801 5803 5806 5808 5809 5810 5811 5814 5816 5819 5822 5824 5826 5829 5831 5834 5836 5837 5837 5838 5840 5843 5845 5848 5851 5853 5854 5856 5858 5860 5862 5864 5865 5865 5866 5867 5868 5869 5870 5869 5869 5870 5872 5872 5873 5874 5874 5873 5874 5874 5875 5875 5876 5877 5878 5879 5879 5879 5880 5880 5881 5881 5882 5884 5886 5886 5885 5884 5884 5885 5886
5770 5771 5773 5775 5777 5779 5780 5781 5782 5784 5785 5787 5789 5791 5793 5795 5797 5799 5801 5803 5804 5805 5806 5808 5811 5814 5816 5819 5822 5825 5827 5828 5829 5830 5832 5834 5836 5838 5841 5843 5845 5847 5849 5851 5853 5855 5856 5857 5859 5860 5860 5862 5863 5863 5862 5863 5865 5866 5867 5868 5869 5868 5869 5870 5870 5870 5871 5871 5871 5871 5872 5872 5873 5874 5876 5877 5879 5880 5881 5880 5878 5877 5876 5875 5875
5763 5764 5765 5767 5768 5769 5770 5772 5773 5775 5776 5778 5780 5782 5784 5786 5788 5790 5792 5794 5796 5797 5798 5799 5801 5803 5806 5809 5812 5815 5817 5819 5821 5822 5823 5824 5827 5829 5831 5833 5835 5838 5840 5842 5844 5847 5848 5849 5851 5852 5852 5853 5855 5856 5855 5856 5857 5859 5860 5861 5863 5863 5863 5864 5865 5865 5865 5864 5864 5865 5866 5868 5869 5870 5871 5872 5873 5873 5873 5871 5869 5868 5868 5867 5868
5756 5757 5758 5759 5759 5760 5761 5762 5764 5765 5767 5768 5770 5771 5774 5776 5778 5779 5781 5784 5787 5789 5790 5791 5792 5793 5795 5799 5802 5804 5807 5809 5811 5812 5813 5814 5817 5820 5822 5824 5826 5828 5830 5832 5835 5837 5839 5841 5842 5843 5844 5844 5846 5847 5848 5848 5849 5851 5852 5854 5855 5857 5858 5858 5858 5858 5857 5858 5858 5859 5861 5863 5865 5865 5865 5865 5865 5866 5866 5865 5863 5861 5862 5863 5864
5750 5750 5750 5751 5751 5752 5753 5754 5755 5756 5757 5759 5760 5762 5764 5766 5767 5769 5770 5772 5775 5778 5780 5782 5783 5784 5786 5788 5791 5793 5797 5800 5801 5802 5803 5804 5806 5809 5812 5815 5817 5818 5820 5823 5825 5827 5829 5832 5833 5834 5835 5836 5837 5839 5840 5841 5841 5842 5844 5845 5848 5850 5851 5851 5851 5850 5850 5851 5852 5854 5855 5856 5857 5857 5856 5857 5858 5859 5860 5859 5857 5856 5857 5858 5859
5743 5743 5742 5742 5743 5744 5745 5746 5746 5747 5748 5749 5751 5752 5754 5756 5757 5758 5759 5760 5763 5766 5769 5771 5773 5774 5776 5778 5780 5783 5786 5789 5791 5792 5793 5793 5795 5798 5801 5804 5806 5808 5810 5813 5815 5817 5819 5821 5824 5825 5826 5827 5828 5830 5831 5832 5833 5834 5835 5837 5839 5842 5843 5843 5843 5844 5844 5844 5846 5847 5848 5848 5849 5849 5849 5849 5851 5852 5852 5852 5852 5850 5850 5851 5852
5735 5735 5734 5735 5735 5736 5736 5737 5738 5739 5740 5741 5742 5743 5744 5746 5747 5748 5749 5750 5751 5754 5757 5760 5762 5763 5765 5767 5769 5773 5776 5778 5780 5781 5782 5783 5784 5787 5789 5792 5795 5798 5800 5803 5805 5807 5809 5811 5813 5815 5817 5818 5819 5821 5822 5823 5825 5826 5826 5827 5830 5833 5835 5835 5835 5836 5837 5838 5840 5841 5841 5841 5840 5841 5842 5843 5844 5844 5844 5844 5845 5844 5844 5844 5844
5726 5726 5727 5727 5728 5728 5729 5729 5729 5730 5731 5732 5733 5734 5735 5736 5737 5738 5739 5740 5741 5743 5745 5748 5749 5751 5753 5755 5758 5762 5764 5766 5768 5770 5772 5773 5774 5776 5778 5780 5783 5786 5790 5793 5795 5797 5798 5801 5803 5805 5807 5809 5810 5811 5813 5814 5815 5817 5818 5818 5820 5822 5825 5826 5827 5828 5829 5830 5831 5833 5835 5834 5833 5832 5834 5835 5835 5835 5836 5836 5837 5838 5838 5838 5837
5717 5718 5719 5720 5721 5721 5721 5722 5722 5722 5722 5722 5723 5724 5725 5726 5727 5728 5729 5730 5731 5733 5734 5736 5738 5739 5741 5743 5746 5749 5751 5754 5757 5760 5762 5762 5763 5764 5767 5769 5771 5774 5778 5781 5784 5786 5788 5790 5793 5795 5797 5799 5800 5802 5803 5804 5805 5807 5809 5810 5810 5812 5814 5817 5818 5820 5820 5820 5821 5823 5826 5827 5826 5825 5825 5825 5826 5827 5828 5829 5830 5831 5831 5831 5830
5709 5709 5710 5711 5712 5712 5712 5713 5713 5713 5713 5713 5714 5715 5715 5716 5717 5718 5719 5720 5722 5723 5724 5725 5727 5729 5730 5732 5734 5736 5738 5741 5745 5749 5750 5750 5750 5752 5754 5758 5761 5763 5765 5768 5771 5775 5778 5781 5783 5785 5787 5788 5790 5792 5794 5795 5796 5797 5799 5800 5801 5802 5804 5806 5809 5811 5812 5811 5811 5813 5815 5818 5820 5820 5819 5818 5818 5819 5820 5821 5823 5824 5824 5823 5823
5700 5701 5701 5702 5702 5702 5703 5703 5704 5704 5704 5705 5705 5705 5706 5706 5707 5708 5709 5710 5711 5712 5714 5715 5716 5718 5719 5721 5722 5723 5726 5729 5732 5735 5737 5738 5739 5740 5743 5746 5750 5751 5753 5755 5759 5762 5766 5770 5772 5774 5776 5778 5780 5782 5784 5785 5786 5787 5789 5790 5792 5793 5794 5796 5798 5800 5802 5803 5803 5803 5805 5807 5811 5813 5813 5812 5811 5811 5812 5813 5814 5815 5816 5816 5815
5692 5692 5692 5692 5693 5693 5694 5694 5695 5695 5695 5695 5696 5696 5696 5697 5697 5698 5699 5700 5701 5702 5703 5704 5706 5707 5708 5710 5712 5713 5715 5717 5719 5721 5724 5726 5727 5728 5731 5734 5736 5738 5741 5744 5747 5750 5753 5757 5760 5763 5765 5767 5769 5772 5774 5775 5776 5778 5779 5780 5782 5783 5784 5786 5787 5790 5792 5793 5794 5795 5795 5797 5799 5802 5804 5804 5803 5803 5804 5805 5805 5806 5807 5808 5808
5684 5684 5684 5684 5684 5684 5685 5685 5685 5686 5686 5686 5686 5686 5686 5687 5687 5688 5688 5689 5690 5691 5692 5693 5695 5696 5697 5699 5701 5703 5704 5706 5707 5708 5710 5712 5715 5717 5718 5720 5723 5725 5728 5732 5734 5737 5740 5744 5747 5751 5754 5757 5759 5761 5763 5764 5766 5767 5769 5770 5771 5773 5774 5776 5777 5779 5781 5783 5785 5786 5786 5787 5788 5791 5793 5794 5794 5795 5795 5795 5796 5797 5797 5798 5799
5676 5676 5676 5676 5676 5676 5676 5676 5676 5676 5676 5676 5676 5676 5676 5677 5677 5677 5678 5678 5679 5679 5680 5682 5683 5685 5686 5687 5689 5692 5694 5695 5695 5695 5697 5699 5702 5704 5706 5707 5710 5713 5716 5719 5721 5724 5727 5730 5734 5738 5742 5745 5748 5750 5752 5753 5755 5756 5758 5759 5761 5762 5764 5766 5767 5769 5770 5772 5774 5776 5776 5777 5778 5779 5781 5783 5784 5785 5786 5786 5786 5787 5787 5788 5789
5668 5668 5668 5667 5667 5667 5667 5667 5667 5667 5667 5667 5667 5666 5666 5666 5666 5667 5667 5667 5668 5668 5669 5670 5672 5673 5674 5676 5678 5680 5682 5683 5683 5684 5685 5687 5690 5692 5694 5695 5697 5700 5703 5705 5707 5710 5714 5717 5720 5724 5728 5732 5736 5738 5740 5742 5744 5746 5747 5748 5750 5751 5753 5755 5757 5758 5760 5762 5763 5765 5766 5767 5768 5768 5769 5771 5773 5774 5776 5776 5777 5777 5777 5778 5779
5660 5660 5659 5659 5659 5658 5658 5657 5657 5657 5657 5657 5657 5657 5657 5656 5656 5656 5656 5656 5657 5657 5658 5658 5660 5661 5662 5664 5666 5668 5670 5671 5672 5673 5674 5676 5678 5680 5682 5683 5685 5687 5690 5692 5694 5697 5700 5703 5707 5710 5714 5718 5722 5725 5728 5730 5732 5734 5736 5738 5739 5740 5742 5744 5746 5747 5749 5751 5752 5754 5755 5757 5758 5758 5759 5760 5761 5763 5765 5766 5767 5768 5768 5769 5769
5652 5651 5650 5650 5650 5649 5649 5648 5648 5647 5647 5647 5647 5647 5647 5647 5647 5647 5646 5646 5646 5647 5647 5647 5648 5649 5650 5652 5654 5656 5658 5660 5661 5662 5663 5665 5666 5668 5670 5672 5673 5675 5677 5679 5681 5684 5687 5690 5694 5697 5700 5703 5707 5710 5714 5717 5719 5722 5724 5726 5728 5730 5731 5733 5734 5736 5738 5740 5741 5743 5744 5746 5747 5748 5749 5750 5751 5752 5753 5754 5755 5757 5758 5759 5759